{"data":{"norad_id":57792,"epoch":"2026-05-25T04:02:05.220672Z","epoch_age_seconds":70917,"freshness":"FRESH","line1":"1 57792U 23135A   26145.16811598  .00000286  00000+0  19590-3 0  9993","line2":"2 57792  49.9722 249.1717 0013726 177.1195 182.9798 14.23107960141357","mean_motion":14.2310796,"eccentricity":0.0013726,"inclination_deg":49.9722,"raan_deg":249.1717,"arg_perigee_deg":177.1195,"mean_anomaly_deg":182.9798,"bstar":0.0001959,"rev_number":14135,"period_min":101.18698232845,"perigee_km":804.98794417245,"apogee_km":824.73416242837,"semimajor_km":7192.9980533004,"source":"CELESTRAK","updated_at":"2026-05-25T13:38:00.270338Z"}}